[[{"header":{"parameterUnit":"m.s-1","parameterCategory":2,"la1":30.2991,"la2":30.254,"lo1":-89.0895,"lo2":-89.0444,"dy":0.0017,"dx":0.0017,"nx":28,"ny":28,"refTime":"2025-01-28T03:00:00:Z","depth":"0","parameterNumber":2,"parameterNumberName":"U-component_of_CURRENTS"},"data":[0,0,0,0,0,0,0,0,0,0,0,0,0,0,0,0,0,0,0,0,0,0,0,0,0,0,0,0,0,0,0,0,0,0,0,0,0,0,0,0,0,0,0,0,0,0,0,0,0,0,0,0,0,0,0,0,0,0,-0.3274,-0.3275,0,-0.3366,-0.3366,-0.3367,-0.3419,-0.3419,-0.342,-0.342,-0.3517,-0.3519,-0.3521,0,0,0,0,0,0,0,0,0,0,0,0,0,-0.3087,-0.3091,-0.3274,-0.3275,-0.3277,-0.3365,-0.3366,-0.3367,-0.3419,-0.3419,-0.342,-0.342,-0.3516,-0.3518,-0.3521,0,0,0,0,0,0,0,0,0,0,0,0,0,-0.317,-0.3092,-0.3274,-0.3315,-0.332,-0.3365,-0.3366,-0.3368,-0.3419,-0.3419,-0.342,-0.3421,-0.3515,-0.3518,-0.3521,-0.353,0,0,-0.3532,-0.3533,0,0,0,0,0,0,0,0,-0.3166,-0.3177,-0.3307,-0.3312,-0.3318,-0.3384,-0.3336,-0.3423,-0.3419,-0.3379,-0.342,-0.3421,-0.3474,-0.348,-0.3493,-0.3535,-0.3539,-0.3532,-0.3534,-0.3535,-0.3536,0,0,0,0,0,0,0,-0.316,-0.3173,-0.3308,-0.3309,-0.3315,-0.3309,-0.3322,-0.3352,-0.342,-0.3382,-0.3387,-0.34,-0.3476,-0.3489,-0.3496,-0.354,-0.3532,-0.3535,-0.3537,-0.3538,-0.3541,-0.3539,0,0,0,0,0,0,-0.3156,-0.3168,-0.3305,-0.3311,-0.3244,-0.3313,-0.3327,-0.336,-0.342,-0.343,-0.34,-0.3403,-0.3484,-0.3492,-0.3499,-0.3475,-0.3535,-0.3538,-0.354,-0.3543,-0.354,-0.3538,0,0,0,0,0,0,-0.3152,-0.3168,-0.3301,-0.3242,-0.3259,-0.3316,-0.3352,-0.3361,-0.3378,-0.3434,-0.3444,-0.3408,-0.3484,-0.3495,-0.3502,-0.3481,-0.354,-0.3543,-0.3545,-0.3542,-0.3539,-0.3452,0,0,0,0,0,0,-0.3147,-0.3167,-0.3176,-0.3242,-0.3262,-0.3321,-0.3352,-0.3363,-0.3387,-0.3391,-0.3443,-0.3453,-0.3486,-0.3497,-0.3505,-0.3487,-0.3545,-0.3547,-0.3544,-0.354,-0.3457,-0.3447,-0.3437,0,0,0,0,0,-0.314,-0.3142,-0.3176,-0.3192,-0.3278,-0.332,-0.3329,-0.3369,-0.3386,-0.3387,-0.3408,-0.3451,-0.348,-0.3498,-0.3509,-0.349,-0.3549,-0.3545,-0.354,-0.3462,-0.3449,-0.3438,0,0,0,0,0,0,-0.3053,-0.315,-0.3188,-0.3218,-0.3267,-0.333,-0.3325,-0.3365,-0.3384,-0.3382,-0.3434,-0.3443,-0.3437,-0.3472,-0.349,-0.3476,-0.352,-0.3517,-0.3456,-0.3444,-0.3434,-0.3442,-0.3548,0,0,0,0,0,-0.3044,-0.3073,-0.3163,-0.3178,-0.3203,-0.3266,-0.3284,-0.3321,-0.3354,-0.3365,-0.3401,-0.3423,-0.3427,-0.3442,-0.3455,-0.3459,-0.3475,-0.345,-0.344,-0.3432,-0.3442,-0.3428,-0.3418,-0.3524,-0.3524,-0.3524,0,0,-0.3009,-0.3066,-0.3079,-0.3161,-0.3197,-0.3226,-0.3277,-0.3302,-0.3316,-0.3371,-0.3377,-0.339,-0.3416,-0.3406,-0.3408,-0.3437,-0.3402,-0.3426,-0.3419,-0.3434,-0.3423,-0.3412,-0.3404,-0.3521,-0.3522,-0.3522,0,0,-0.2954,-0.301,-0.3023,-0.3066,-0.3133,-0.3175,-0.3184,-0.3254,-0.3272,-0.3286,-0.3311,-0.3308,-0.334,-0.3345,-0.3353,-0.3297,-0.3342,-0.3302,-0.3272,-0.3257,-0.3249,-0.3242,-0.3222,-0.3214,-0.3306,-0.3306,-0.3306,0,-0.291,-0.2959,-0.3023,-0.305,-0.3082,-0.3152,-0.3173,-0.3195,-0.3252,-0.3267,-0.3273,-0.3291,-0.3306,-0.3296,-0.3267,-0.3276,-0.3278,-0.3317,-0.3245,-0.3239,-0.3233,-0.3215,-0.3207,-0.3301,-0.3302,-0.3302,-0.3303,0,-0.2882,-0.292,-0.2921,-0.2992,-0.3023,-0.3046,-0.3109,-0.3129,-0.3159,-0.3193,-0.3191,-0.3199,-0.3221,-0.3207,-0.322,-0.3188,-0.3203,-0.3226,-0.3279,-0.3217,-0.3201,-0.3195,-0.3295,-0.3296,-0.3298,-0.3299,0,0,-0.2798,-0.2891,-0.2892,-0.293,-0.3005,-0.3034,-0.3045,-0.3096,-0.3117,-0.313,-0.3148,-0.3119,-0.3144,-0.3151,-0.3163,-0.3145,-0.3082,-0.3167,-0.3169,-0.3153,-0.3045,-0.2958,-0.2943,-0.3096,-0.3095,-0.3094,-0.3041,0,-0.2765,-0.2809,-0.2863,-0.2892,-0.2928,-0.2996,-0.301,-0.3054,-0.3087,-0.3114,-0.3113,-0.3123,-0.3117,-0.3125,-0.3099,-0.3105,-0.3066,-0.3095,-0.3104,-0.3104,-0.3038,-0.2933,-0.2799,-0.2732,-0.3035,-0.3034,-0.3033,0,-0.2734,-0.2777,-0.2808,-0.289,-0.291,-0.2926,-0.299,-0.3016,-0.3061,-0.3086,-0.3096,-0.3117,-0.3095,-0.3094,-0.3051,-0.3074,-0.3045,-0.3033,-0.3032,-0.2984,-0.3005,-0.2847,-0.271,-0.2681,-0.3024,-0.3025,-0.3025,0,-0.2669,-0.274,-0.2768,-0.2794,-0.2884,-0.2901,-0.2942,-0.3,-0.3027,-0.3071,-0.3092,-0.309,-0.3086,-0.3057,-0.3027,-0.3043,-0.2976,-0.3002,-0.2887,-0.2882,-0.2788,-0.2775,-0.263,-0.2943,-0.2943,-0.2944,-0.2944,0,-0.2632,-0.265,-0.274,-0.2755,-0.2783,-0.2862,-0.289,-0.2937,-0.2997,-0.3019,-0.3068,-0.3072,-0.3075,-0.3049,-0.302,-0.2922,-0.2965,-0.2856,-0.285,-0.2748,-0.2733,-0.2723,-0.2763,-0.2942,-0.2942,-0.2942,-0.2943,0,-0.2548,-0.2613,-0.2646,-0.2731,-0.2753,-0.2768,-0.2849,-0.2871,-0.2946,-0.2974,-0.2986,-0.3043,-0.3009,-0.2994,-0.2949,-0.2894,-0.277,-0.2784,-0.2658,-0.2636,-0.249,-0.2531,-0.2425,-0.2356,-0.2642,-0.2639,-0.2637,0,-0.2506,-0.2517,-0.2597,-0.2608,-0.2638,-0.2682,-0.2708,-0.2814,-0.2847,-0.2943,-0.2943,-0.2949,-0.2913,-0.2821,-0.2739,-0.2645,-0.2656,-0.2472,-0.2462,-0.2428,-0.2472,-0.2515,-0.2469,-0.23,-0.2295,-0.2291,-0.2288,0,-0.2407,-0.2437,-0.2461,-0.2491,-0.2517,-0.2553,-0.2607,-0.2629,-0.2749,-0.2776,-0.2799,-0.2782,-0.2723,-0.257,-0.2466,-0.24,-0.24,-0.2385,-0.238,-0.2198,-0.2208,-0.2156,-0.2405,-0.2252,-0.2256,-0.2258,-0.226,-0.2262,-0.2305,-0.2299,-0.2332,-0.2343,-0.2375,-0.2386,-0.2365,-0.244,-0.2458,-0.247,-0.2577,-0.2514,-0.2442,-0.2269,-0.2196,-0.2031,-0.2136,-0.1967,-0.2022,-0.2071,-0.198,-0.214,-0.1968,-0.1969,-0.1971,-0.1972,-0.1974,0,-0.2165,-0.2173,-0.218,-0.2189,-0.2158,-0.2228,-0.2259,-0.2214,-0.2173,-0.2232,-0.2217,-0.2168,-0.2001,-0.1955,-0.1805,-0.1703,-0.1674,-0.1671,-0.1703,-0.1674,-0.1816,-0.1774,-0.1515,-0.1515,-0.1515,-0.1515,-0.1516,-0.1516,-0.2088,-0.2042,-0.2051,-0.1954,-0.1954,-0.187,-0.1848,-0.1812,-0.1819,-0.1757,-0.1763,-0.1816,-0.1785,-0.1839,-0.1661,-0.156,-0.1538,-0.1479,-0.1539,-0.1655,-0.1688,-0.1719,-0.1685,-0.1411,-0.1411,-0.1311,-0.131,-0.131]},{"header":{"parameterUnit":"m.s-1","parameterCategory":2,"la1":30.2991,"la2":30.254,"lo1":-89.0895,"lo2":-89.0444,"dy":0.0017,"dx":0.0017,"nx":28,"ny":28,"refTime":"2025-01-28T03:00:00:Z","depth":"0","parameterNumber":3,"parameterNumberName":"V-component_of_CURRENTS"},"data":[0,0,0,0,0,0,0,0,0,0,0,0,0,0,0,0,0,0,0,0,0,0,0,0,0,0,0,0,0,0,0,0,0,0,0,0,0,0,0,0,0,0,0,0,0,0,0,0,0,0,0,0,0,0,0,0,0,0,-0.0599,-0.0598,0,-0.0507,-0.0505,-0.0504,-0.044,-0.044,-0.0439,-0.0439,-0.0241,-0.0236,-0.0231,0,0,0,0,0,0,0,0,0,0,0,0,0,-0.0618,-0.0618,-0.0599,-0.0598,-0.0598,-0.0507,-0.0505,-0.0504,-0.044,-0.044,-0.0439,-0.0439,-0.0242,-0.0236,-0.023,0,0,0,0,0,0,0,0,0,0,0,0,0,-0.0573,-0.0618,-0.0599,-0.0557,-0.0552,-0.0507,-0.0505,-0.0503,-0.044,-0.0439,-0.0439,-0.0439,-0.0244,-0.0237,-0.0229,-0.0188,0,0,-0.0206,-0.0203,0,0,0,0,0,0,0,0,-0.0576,-0.0572,-0.0564,-0.056,-0.0555,-0.0487,-0.0439,-0.0394,-0.044,-0.0479,-0.0439,-0.0439,-0.0316,-0.0302,-0.0282,-0.0179,-0.0171,-0.0205,-0.0201,-0.0198,-0.0195,0,0,0,0,0,0,0,-0.0579,-0.0575,-0.0559,-0.0563,-0.0558,-0.0507,-0.0501,-0.043,-0.0396,-0.0476,-0.0472,-0.0466,-0.0312,-0.029,-0.0277,-0.0168,-0.0206,-0.0199,-0.0194,-0.0191,-0.0022,-0.0022,0,0,0,0,0,0,-0.0603,-0.0579,-0.0562,-0.0557,-0.0568,-0.0508,-0.0501,-0.0507,-0.0399,-0.0384,-0.0467,-0.0464,-0.0303,-0.0286,-0.027,-0.0216,-0.0198,-0.019,-0.0186,-0.0021,-0.0022,-0.0022,0,0,0,0,0,0,-0.0604,-0.0603,-0.0566,-0.0567,-0.056,-0.0509,-0.0515,-0.0505,-0.0484,-0.0394,-0.0376,-0.0457,-0.0302,-0.028,-0.0215,-0.0208,-0.0187,-0.018,-0.0021,-0.0021,-0.0022,-0.0107,0,0,0,0,0,0,-0.0605,-0.0604,-0.061,-0.057,-0.0561,-0.0549,-0.0515,-0.0504,-0.0483,-0.0478,-0.0379,-0.0361,-0.03,-0.0227,-0.0208,-0.0197,-0.0174,-0.0021,-0.0021,-0.0022,-0.0104,-0.011,-0.0115,0,0,0,0,0,-0.0606,-0.0613,-0.0611,-0.0609,-0.0573,-0.055,-0.054,-0.05,-0.0483,-0.0478,-0.0415,-0.0364,-0.0214,-0.0221,-0.0198,-0.0185,-0.0021,-0.0021,-0.0022,-0.0102,-0.0109,-0.0115,0,0,0,0,0,0,-0.0617,-0.0607,-0.0603,-0.0606,-0.0588,-0.054,-0.0526,-0.0506,-0.0453,-0.0441,-0.036,-0.0337,-0.0281,-0.0222,-0.0232,-0.0138,-0.011,-0.0106,-0.0179,-0.0185,-0.019,-0.0202,-0.0168,0,0,0,0,0,-0.0628,-0.0634,-0.0616,-0.0617,-0.061,-0.0572,-0.0555,-0.0533,-0.0485,-0.0462,-0.0399,-0.0326,-0.0263,-0.0218,-0.0157,-0.0097,-0.0046,-0.0075,-0.0081,-0.0086,-0.008,-0.0017,-0.0016,-0.0022,-0.0022,-0.0022,0,0,-0.0632,-0.0627,-0.063,-0.0621,-0.0598,-0.0591,-0.056,-0.054,-0.0525,-0.0446,-0.0399,-0.0344,-0.0255,-0.0198,-0.0166,-0.0146,-0.0058,-0.0086,-0.0091,-0.0082,-0.0017,-0.0016,-0.0016,-0.0022,-0.0022,-0.0022,0,0,-0.0648,-0.0642,-0.0656,-0.0645,-0.0626,-0.0601,-0.0603,-0.0564,-0.0537,-0.0493,-0.0437,-0.0382,-0.0281,-0.0221,-0.0175,-0.017,-0.0098,-0.0152,-0.0173,-0.0113,-0.0112,-0.011,-0.005,-0.0042,-0.0145,-0.0145,-0.0145,0,-0.0657,-0.0677,-0.0653,-0.0661,-0.0657,-0.0613,-0.0624,-0.0584,-0.053,-0.0509,-0.0488,-0.0359,-0.0289,-0.0215,-0.0216,-0.018,-0.0138,-0.0158,-0.0121,-0.0118,-0.0115,-0.0053,-0.0044,-0.0149,-0.0148,-0.0148,-0.0148,0,-0.0687,-0.07,-0.0702,-0.0704,-0.069,-0.0691,-0.0649,-0.0625,-0.0589,-0.0551,-0.0485,-0.0397,-0.0321,-0.0292,-0.0245,-0.019,-0.0165,-0.0146,-0.0109,-0.012,-0.0054,-0.0043,-0.0155,-0.0153,-0.0152,-0.0151,0,0,-0.0723,-0.0729,-0.0731,-0.0749,-0.0719,-0.0717,-0.0684,-0.0654,-0.0637,-0.0567,-0.0537,-0.0431,-0.0391,-0.0337,-0.0274,-0.0214,-0.0157,-0.0175,-0.017,-0.0123,-0.0024,0.0026,0.0044,-0.0137,-0.0136,-0.0134,0.0011,0,-0.0762,-0.0804,-0.0784,-0.081,-0.083,-0.078,-0.076,-0.0716,-0.0663,-0.0617,-0.0518,-0.0462,-0.0403,-0.0373,-0.0303,-0.0197,-0.013,-0.0198,-0.0011,-0.0006,0.0033,0.0058,0.0097,0.0232,0.0023,0.0025,0.0026,0,-0.0808,-0.0832,-0.0876,-0.0887,-0.0889,-0.0886,-0.0855,-0.083,-0.0741,-0.0698,-0.0617,-0.054,-0.0433,-0.0392,-0.0203,-0.0252,-0.0144,-0.0058,-0.005,0.0037,0.0066,0.0213,0.0262,0.0429,0.0044,0.0043,0.0042,0,-0.0871,-0.0897,-0.0941,-0.0944,-0.0939,-0.0941,-0.0927,-0.0859,-0.0839,-0.0748,-0.0716,-0.0584,-0.0513,-0.0366,-0.0178,-0.0193,0.003,0.0033,0.0185,0.0189,0.0283,0.0293,0.0512,0.0168,0.0168,0.0167,0.0167,0,-0.0933,-0.0965,-0.0977,-0.1004,-0.1045,-0.101,-0.1023,-0.0983,-0.0919,-0.0891,-0.0766,-0.0701,-0.0505,-0.0349,-0.0188,0.0045,0.0031,0.0196,0.0237,0.0254,0.0259,0.0458,0.0515,0.0173,0.0172,0.0171,0.017,0,-0.0996,-0.1004,-0.1058,-0.1074,-0.108,-0.1109,-0.1099,-0.1099,-0.1027,-0.0981,-0.0955,-0.0783,-0.0574,-0.0358,-0.0106,0.0036,0.036,0.0331,0.0339,0.0378,0.0653,0.0703,0.0965,0.1064,0.0514,0.0516,0.0518,0,-0.1033,-0.107,-0.112,-0.1157,-0.1168,-0.1198,-0.1212,-0.1161,-0.115,-0.1019,-0.0998,-0.0793,-0.0623,-0.0228,0.0053,0.0356,0.0481,0.056,0.0542,0.0695,0.0781,0.0813,0.0878,0.0634,0.0637,0.0639,0.0641,0,-0.1099,-0.1116,-0.1159,-0.1241,-0.1277,-0.1314,-0.1324,-0.1333,-0.1253,-0.1177,-0.1035,-0.0886,-0.0497,-0.0133,0.0254,0.0439,0.0686,0.0613,0.0782,0.091,0.0952,0.1056,0.0506,0.066,0.0658,0.0657,0.0656,0.0655,-0.1135,-0.1187,-0.1245,-0.1315,-0.1364,-0.1407,-0.1422,-0.1399,-0.1353,-0.1208,-0.1071,-0.0793,-0.0286,0.0273,0.048,0.0918,0.087,0.1046,0.1098,0.1121,0.1209,0.0698,0.0886,0.0885,0.0885,0.0884,0.0884,0,-0.1174,-0.1232,-0.1313,-0.139,-0.1446,-0.1451,-0.1472,-0.1438,-0.1364,-0.1189,-0.1004,-0.0424,0.008,0.0548,0.115,0.1388,0.1435,0.1507,0.157,0.1617,0.1189,0.1186,0.1435,0.1435,0.1435,0.1435,0.1435,0.1434,-0.1196,-0.1278,-0.1323,-0.1428,-0.1479,-0.1512,-0.1513,-0.1427,-0.1293,-0.0951,-0.0614,-0.0352,0.0321,0.1239,0.1783,0.1837,0.2032,0.202,0.212,0.1826,0.1786,0.1749,0.1763,0.2129,0.2129,0.2536,0.254,0.2543]}],[{"header":{"parameterUnit":"m.s-1","parameterCategory":2,"la1":30.2991,"la2":30.254,"lo1":-89.0895,"lo2":-89.0444,"dy":0.0017,"dx":0.0017,"nx":28,"ny":28,"refTime":"2025-01-28T03:00:00:Z","depth":"2","parameterNumber":2,"parameterNumberName":"U-component_of_CURRENTS"},"data":[0,0,0,0,0,0,0,0,0,0,0,0,0,0,0,0,0,0,0,0,0,0,0,0,0,0,0,0,0,0,0,0,0,0,0,0,0,0,0,0,0,0,0,0,0,0,0,0,0,0,0,0,0,0,0,0,0,0,-0.2612,-0.2613,0,-0.2632,-0.2632,-0.2632,-0.2612,-0.2612,-0.2611,-0.2611,-0.2617,-0.2618,-0.2618,0,0,0,0,0,0,0,0,0,0,0,0,0,-0.257,-0.2571,-0.2612,-0.2613,-0.2613,-0.2632,-0.2632,-0.2632,-0.2612,-0.2612,-0.2611,-0.261,-0.2617,-0.2618,-0.2619,0,0,0,0,0,0,0,0,0,0,0,0,0,-0.2587,-0.2571,-0.2612,-0.2607,-0.2607,-0.2632,-0.2632,-0.2632,-0.2613,-0.2612,-0.2611,-0.261,-0.2617,-0.2618,-0.2619,-0.2642,0,0,-0.2622,-0.2622,0,0,0,0,0,0,0,0,-0.2586,-0.2588,-0.2607,-0.2608,-0.2608,-0.2621,-0.262,-0.2636,-0.2613,-0.2608,-0.2611,-0.261,-0.2619,-0.262,-0.2623,-0.2642,-0.2643,-0.2622,-0.2623,-0.2623,-0.2623,0,0,0,0,0,0,0,-0.2585,-0.2587,-0.2618,-0.2608,-0.2608,-0.2609,-0.261,-0.2623,-0.2616,-0.2608,-0.2608,-0.2614,-0.2619,-0.2622,-0.2623,-0.2643,-0.2622,-0.2623,-0.2623,-0.2624,-0.2688,-0.2689,0,0,0,0,0,0,-0.2588,-0.2586,-0.2617,-0.2618,-0.2597,-0.261,-0.2611,-0.2616,-0.2616,-0.2616,-0.2615,-0.2613,-0.262,-0.2621,-0.2623,-0.2662,-0.2623,-0.2624,-0.2625,-0.2687,-0.2688,-0.269,0,0,0,0,0,0,-0.2586,-0.259,-0.2616,-0.2605,-0.2608,-0.2612,-0.2617,-0.2616,-0.2623,-0.2622,-0.2621,-0.2622,-0.262,-0.2621,-0.2647,-0.2661,-0.2624,-0.2625,-0.2686,-0.2687,-0.2689,-0.2732,0,0,0,0,0,0,-0.2585,-0.2589,-0.2594,-0.2605,-0.2609,-0.2636,-0.2618,-0.2618,-0.2629,-0.2627,-0.2628,-0.2627,-0.2619,-0.2645,-0.2648,-0.2662,-0.2626,-0.2684,-0.2687,-0.2688,-0.2729,-0.2735,-0.274,0,0,0,0,0,-0.2584,-0.2597,-0.2594,-0.2598,-0.2615,-0.2637,-0.264,-0.2638,-0.263,-0.2639,-0.2644,-0.2627,-0.2659,-0.2648,-0.265,-0.2665,-0.2683,-0.2686,-0.2688,-0.2727,-0.2734,-0.274,0,0,0,0,0,0,-0.258,-0.2597,-0.2594,-0.2611,-0.2625,-0.2635,-0.2645,-0.2646,-0.2657,-0.2655,-0.2648,-0.2649,-0.2675,-0.2669,-0.2656,-0.2689,-0.2666,-0.2669,-0.2695,-0.2701,-0.2706,-0.2694,-0.2627,0,0,0,0,0,-0.2583,-0.2593,-0.2611,-0.2621,-0.2633,-0.264,-0.2649,-0.2652,-0.2663,-0.2667,-0.2669,-0.2674,-0.2688,-0.2693,-0.2703,-0.2727,-0.2705,-0.2736,-0.2741,-0.2745,-0.2737,-0.2729,-0.2732,-0.2698,-0.2697,-0.2697,0,0,-0.2581,-0.2593,-0.2596,-0.2621,-0.263,-0.2653,-0.2643,-0.2663,-0.2681,-0.2668,-0.2692,-0.2697,-0.27,-0.2725,-0.2735,-0.272,-0.2745,-0.2749,-0.2752,-0.2742,-0.2732,-0.2735,-0.2738,-0.2699,-0.2699,-0.2699,0,0,-0.2584,-0.2598,-0.2607,-0.2629,-0.2653,-0.2665,-0.2675,-0.2695,-0.2702,-0.2732,-0.2726,-0.2741,-0.2762,-0.2764,-0.2769,-0.2811,-0.2776,-0.2813,-0.2827,-0.282,-0.2822,-0.2824,-0.2801,-0.28,-0.2812,-0.2812,-0.2812,0,-0.2578,-0.2596,-0.2614,-0.2638,-0.2655,-0.2674,-0.2694,-0.2715,-0.2738,-0.2747,-0.2745,-0.2774,-0.278,-0.2803,-0.2815,-0.2822,-0.2804,-0.2803,-0.2825,-0.2826,-0.2827,-0.2803,-0.2802,-0.2815,-0.2814,-0.2814,-0.2814,0,-0.2589,-0.261,-0.2624,-0.2655,-0.2681,-0.2703,-0.2739,-0.2762,-0.2776,-0.2788,-0.2816,-0.2826,-0.2835,-0.2846,-0.2845,-0.2858,-0.2838,-0.2835,-0.2806,-0.2833,-0.2807,-0.2804,-0.2818,-0.2817,-0.2817,-0.2816,0,0,-0.2541,-0.2614,-0.2615,-0.2637,-0.2692,-0.2711,-0.2757,-0.2792,-0.2813,-0.2837,-0.2855,-0.2883,-0.2877,-0.2881,-0.2881,-0.2877,-0.2875,-0.2858,-0.2857,-0.2829,-0.2843,-0.2755,-0.2743,-0.2874,-0.2874,-0.2874,-0.2822,0,-0.2534,-0.258,-0.2619,-0.2661,-0.2688,-0.2734,-0.2773,-0.2812,-0.2841,-0.2868,-0.2881,-0.29,-0.2895,-0.2899,-0.2897,-0.2886,-0.2871,-0.2888,-0.2826,-0.2823,-0.2736,-0.2739,-0.2536,-0.2466,-0.2819,-0.2819,-0.2818,0,-0.2518,-0.2554,-0.2595,-0.2667,-0.2682,-0.2712,-0.2769,-0.2808,-0.2861,-0.2882,-0.2903,-0.2913,-0.2923,-0.2912,-0.2891,-0.2901,-0.2869,-0.2854,-0.2852,-0.2748,-0.273,-0.2496,-0.2448,-0.2814,-0.2815,-0.2815,-0.2815,0,-0.246,-0.2531,-0.2562,-0.2587,-0.2674,-0.2696,-0.2738,-0.2801,-0.283,-0.2883,-0.29,-0.292,-0.292,-0.2901,-0.2873,-0.2881,-0.2836,-0.2844,-0.273,-0.2723,-0.2526,-0.2501,-0.281,-0.2811,-0.2811,-0.2811,-0.2811,0,-0.2431,-0.2451,-0.2537,-0.2553,-0.2586,-0.2662,-0.2696,-0.2746,-0.281,-0.2834,-0.2891,-0.2899,-0.2916,-0.2898,-0.2872,-0.2784,-0.283,-0.2719,-0.27,-0.2536,-0.2514,-0.2798,-0.2797,-0.2809,-0.2809,-0.281,-0.281,0,-0.2354,-0.2416,-0.245,-0.2535,-0.2558,-0.2577,-0.266,-0.2684,-0.2762,-0.2794,-0.2809,-0.2873,-0.285,-0.2846,-0.2812,-0.2762,-0.2706,-0.266,-0.2459,-0.2416,-0.2599,-0.2601,-0.2528,-0.2524,-0.2521,-0.2519,-0.2516,0,-0.2316,-0.2328,-0.2408,-0.2421,-0.2453,-0.25,-0.2528,-0.2632,-0.2664,-0.2763,-0.2763,-0.2781,-0.2748,-0.2675,-0.2599,-0.2514,-0.2609,-0.2284,-0.2262,-0.2579,-0.2568,-0.2576,-0.2582,-0.202,-0.2014,-0.2009,-0.2005,0,-0.2229,-0.2258,-0.2285,-0.2314,-0.2343,-0.2378,-0.2432,-0.2451,-0.2568,-0.2593,-0.2614,-0.26,-0.2553,-0.2375,-0.2286,-0.2218,-0.2287,-0.218,-0.2546,-0.2131,-0.2097,-0.2088,-0.2111,-0.196,-0.1965,-0.1968,-0.1971,-0.1972,-0.2141,-0.2136,-0.2169,-0.218,-0.2213,-0.222,-0.2197,-0.2265,-0.2277,-0.2282,-0.2385,-0.2295,-0.2282,-0.2032,-0.1921,-0.1838,-0.2002,-0.191,-0.1926,-0.1947,-0.1906,-0.1869,-0.1682,-0.1684,-0.1686,-0.1689,-0.169,0,-0.2018,-0.2024,-0.2031,-0.2039,-0.2009,-0.2078,-0.2097,-0.2042,-0.1991,-0.2031,-0.2009,-0.1797,-0.1673,-0.1669,-0.1467,-0.1426,-0.1419,-0.1367,-0.136,-0.1404,-0.1443,-0.1378,-0.1012,-0.101,-0.1009,-0.1007,0,0,-0.1951,-0.1908,-0.1911,-0.1818,-0.182,-0.1727,-0.1698,-0.1639,-0.1623,-0.1523,-0.1477,-0.1594,-0.1623,-0.1327,-0.1249,-0.1098,-0.1241,-0.1038,-0.1581,-0.1617,-0.1654,-0.1753,-0.17,0,0,0,0,0]},{"header":{"parameterUnit":"m.s-1","parameterCategory":2,"la1":30.2991,"la2":30.254,"lo1":-89.0895,"lo2":-89.0444,"dy":0.0017,"dx":0.0017,"nx":28,"ny":28,"refTime":"2025-01-28T03:00:00:Z","depth":"2","parameterNumber":3,"parameterNumberName":"V-component_of_CURRENTS"},"data":[0,0,0,0,0,0,0,0,0,0,0,0,0,0,0,0,0,0,0,0,0,0,0,0,0,0,0,0,0,0,0,0,0,0,0,0,0,0,0,0,0,0,0,0,0,0,0,0,0,0,0,0,0,0,0,0,0,0,-0.0256,-0.0255,0,-0.0166,-0.0165,-0.0164,-0.0094,-0.0093,-0.0093,-0.0092,0.0042,0.0045,0.0048,0,0,0,0,0,0,0,0,0,0,0,0,0,-0.0325,-0.0324,-0.0256,-0.0255,-0.0254,-0.0166,-0.0165,-0.0163,-0.0094,-0.0093,-0.0092,-0.0092,0.0041,0.0045,0.0048,0,0,0,0,0,0,0,0,0,0,0,0,0,-0.0269,-0.0324,-0.0256,-0.021,-0.0205,-0.0166,-0.0165,-0.0163,-0.0094,-0.0093,-0.0092,-0.0092,0.004,0.0044,0.0049,0.0062,0,0,0.0063,0.0065,0,0,0,0,0,0,0,0,-0.0273,-0.0267,-0.0218,-0.0213,-0.0208,-0.0142,-0.014,-0.0086,-0.0094,-0.0134,-0.0092,-0.0091,-0.0017,-0.0008,0.0009,0.0068,0.0074,0.0063,0.0066,0.0068,0.0069,0,0,0,0,0,0,0,-0.0277,-0.027,-0.0219,-0.0217,-0.0211,-0.0179,-0.0171,-0.0129,-0.0079,-0.0131,-0.0126,-0.0119,-0.0014,0.0005,0.0013,0.0076,0.0063,0.0067,0.007,0.0072,0.0165,0.0165,0,0,0,0,0,0,-0.0294,-0.0274,-0.0222,-0.0216,-0.0241,-0.0179,-0.0169,-0.0162,-0.008,-0.0068,-0.012,-0.0116,-0.0004,0.0008,0.0018,0.0039,0.0068,0.0072,0.0075,0.0166,0.0165,0.0165,0,0,0,0,0,0,-0.0296,-0.0291,-0.0225,-0.0244,-0.0234,-0.0179,-0.0171,-0.0161,-0.0142,-0.0073,-0.0059,-0.0112,-0.0003,0.0012,0.0049,0.0045,0.0075,0.0079,0.0166,0.0165,0.0165,0.0082,0,0,0,0,0,0,-0.0298,-0.0292,-0.0295,-0.0246,-0.0234,-0.021,-0.0172,-0.016,-0.014,-0.0134,-0.0061,-0.0048,-0.0001,0.0042,0.0054,0.0052,0.0082,0.0166,0.0166,0.0165,0.0085,0.0078,0.0073,0,0,0,0,0,-0.0301,-0.0312,-0.0296,-0.029,-0.024,-0.0211,-0.0202,-0.0158,-0.014,-0.0137,-0.009,-0.005,0.0047,0.0045,0.006,0.0059,0.0167,0.0166,0.0165,0.0087,0.008,0.0073,0,0,0,0,0,0,-0.0344,-0.0305,-0.0286,-0.0285,-0.0254,-0.02,-0.0197,-0.0166,-0.0127,-0.0122,-0.0055,-0.0038,-0.0007,0.0035,0.0032,0.0084,0.0114,0.0116,0.005,0.0043,0.0037,0.0024,0.0086,0,0,0,0,0,-0.0357,-0.0355,-0.031,-0.031,-0.0299,-0.025,-0.0234,-0.0205,-0.0164,-0.0145,-0.0095,-0.0043,0.0,0.0028,0.007,0.0099,0.0147,0.0108,0.0102,0.0097,0.0096,0.0159,0.0159,0.0163,0.0163,0.0163,0,0,-0.0374,-0.0354,-0.0351,-0.032,-0.0293,-0.0286,-0.0238,-0.0222,-0.0212,-0.0137,-0.0113,-0.0065,0.0001,0.0032,0.0051,0.0069,0.0121,0.0096,0.0091,0.0093,0.0158,0.0158,0.0158,0.0162,0.0162,0.0162,0,0,-0.0412,-0.039,-0.0401,-0.0382,-0.0351,-0.032,-0.032,-0.0271,-0.0245,-0.0217,-0.0162,-0.0117,-0.0054,-0.0004,0.0029,0.0017,0.0083,0.0029,-0.0005,0.0056,0.0056,0.0057,0.0113,0.0119,0.0031,0.0031,0.0031,0,-0.0434,-0.0439,-0.04,-0.0407,-0.0398,-0.0341,-0.0351,-0.0318,-0.0262,-0.0241,-0.0222,-0.0121,-0.0069,-0.0017,-0.0023,0.0004,0.0047,0.0015,0.0048,0.005,0.0052,0.0109,0.0118,0.0027,0.0027,0.0028,0.0028,0,-0.0476,-0.0481,-0.0489,-0.0477,-0.0462,-0.0462,-0.0415,-0.0395,-0.0358,-0.0316,-0.0263,-0.019,-0.0125,-0.0104,-0.0067,-0.0025,0.0002,0.0027,0.0062,0.0046,0.0108,0.0118,0.0021,0.0022,0.0024,0.0025,0,0,-0.0518,-0.0519,-0.0521,-0.0531,-0.0499,-0.0493,-0.0478,-0.0441,-0.0426,-0.0366,-0.0334,-0.0259,-0.021,-0.0169,-0.0109,-0.0057,-0.0008,-0.0017,-0.0012,0.0033,0.0124,0.0153,0.0168,0.0021,0.0022,0.0023,0.0158,0,-0.0561,-0.06,-0.0579,-0.0608,-0.0623,-0.0571,-0.0562,-0.052,-0.047,-0.0425,-0.0336,-0.0287,-0.0236,-0.0205,-0.0145,-0.0043,0.0015,-0.0047,0.0139,0.0144,0.0168,0.0179,0.015,0.0269,0.0168,0.017,0.0171,0,-0.0606,-0.0627,-0.067,-0.0676,-0.0677,-0.068,-0.0649,-0.0631,-0.0551,-0.0509,-0.0435,-0.036,-0.0269,-0.0228,-0.0057,-0.0101,0.0002,0.0082,0.009,0.0154,0.0193,0.0272,0.0292,0.0189,0.0188,0.0186,0.0185,0,-0.0661,-0.0687,-0.0726,-0.073,-0.0726,-0.0729,-0.0718,-0.0658,-0.0641,-0.0557,-0.0527,-0.0406,-0.034,-0.0204,-0.0036,-0.0045,0.0154,0.0169,0.0296,0.03,0.0332,0.0336,0.0292,0.0292,0.0292,0.0292,0.0291,0,-0.0715,-0.0745,-0.0759,-0.0782,-0.0821,-0.0791,-0.0805,-0.077,-0.0714,-0.0691,-0.0575,-0.052,-0.0333,-0.0192,-0.0045,0.016,0.0156,0.0297,0.034,0.0301,0.0301,0.0276,0.0272,0.0297,0.0296,0.0295,0.0294,0,-0.077,-0.0778,-0.0828,-0.0845,-0.0852,-0.088,-0.0877,-0.0879,-0.0816,-0.0779,-0.0755,-0.0598,-0.0412,-0.0213,0.0022,0.0149,0.0339,0.0414,0.0353,0.0386,0.0445,0.0435,0.0566,0.0569,0.057,0.0572,0.0573,0,-0.0801,-0.0835,-0.0885,-0.0921,-0.0933,-0.0964,-0.0981,-0.0938,-0.093,-0.082,-0.0802,-0.062,-0.047,-0.0115,0.0134,0.0407,0.0406,0.0534,0.0514,0.0446,0.0475,0.0462,0.045,0.0526,0.0526,0.0527,0.0528,0,-0.0859,-0.0877,-0.0918,-0.0998,-0.1036,-0.1073,-0.1087,-0.1098,-0.1031,-0.0968,-0.0847,-0.0717,-0.0376,-0.0079,0.0264,0.0419,0.0484,0.0556,0.0523,0.0451,0.0417,0.0441,0.043,0.0534,0.0533,0.0533,0.0532,0.0532,-0.0893,-0.0941,-0.0998,-0.1068,-0.1118,-0.1163,-0.1181,-0.1163,-0.1128,-0.1004,-0.0887,-0.0648,-0.0376,0.0123,0.0358,0.0578,0.0574,0.0634,0.0628,0.0623,0.0585,0.0554,0.0691,0.0691,0.0691,0.0691,0.0692,0,-0.0933,-0.0987,-0.1063,-0.1141,-0.1201,-0.1208,-0.1232,-0.1203,-0.1142,-0.0993,-0.0834,-0.0504,-0.0171,0.0118,0.0471,0.0673,0.0651,0.0704,0.0632,0.0626,0.062,0.0578,0.0684,0.0685,0.0685,0.0686,0,0,-0.0955,-0.1033,-0.1074,-0.1182,-0.1237,-0.1272,-0.1276,-0.1198,-0.108,-0.0907,-0.0719,-0.0489,-0.0145,0.0101,0.0348,0.0531,0.0526,0.0548,0.0534,0.0414,0.0406,0.0562,0.0489,0,0,0,0,0]}],[{"header":{"parameterUnit":"m.s-1","parameterCategory":2,"la1":30.2991,"la2":30.254,"lo1":-89.0895,"lo2":-89.0444,"dy":0.0017,"dx":0.0017,"nx":28,"ny":28,"refTime":"2025-01-28T03:00:00:Z","depth":"4","parameterNumber":2,"parameterNumberName":"U-component_of_CURRENTS"},"data":[0,0,0,0,0,0,0,0,0,0,0,0,0,0,0,0,0,0,0,0,0,0,0,0,0,0,0,0,0,0,0,0,0,0,0,0,0,0,0,0,0,0,0,0,0,0,0,0,0,0,0,0,0,0,0,0,0,0,-0.179,-0.179,0,-0.1849,-0.185,-0.185,-0.1889,-0.1889,-0.189,-0.189,-0.1962,-0.1964,-0.1966,0,0,0,0,0,0,0,0,0,0,0,0,0,-0.1716,-0.1717,-0.179,-0.1791,-0.1791,-0.1849,-0.185,-0.1851,-0.1889,-0.1889,-0.189,-0.189,-0.1962,-0.1964,-0.1966,0,0,0,0,0,0,0,0,0,0,0,0,0,-0.1758,-0.1717,-0.179,-0.1818,-0.1821,-0.1849,-0.185,-0.1851,-0.1889,-0.1889,-0.189,-0.189,-0.1961,-0.1964,-0.1966,-0.1971,0,0,-0.1973,-0.1974,0,0,0,0,0,0,0,0,-0.1755,-0.176,-0.1813,-0.1816,-0.182,-0.1863,-0.1851,-0.1892,-0.1889,-0.1862,-0.189,-0.1891,-0.1931,-0.1936,-0.1944,-0.1974,-0.1977,-0.1974,-0.1975,-0.1976,-0.1977,0,0,0,0,0,0,0,-0.1752,-0.1758,-0.1812,-0.1814,-0.1818,-0.1831,-0.1837,-0.1858,-0.1892,-0.1864,-0.1868,-0.1876,-0.1933,-0.1942,-0.1946,-0.1978,-0.1974,-0.1976,-0.1977,-0.1978,-0.2102,-0.2104,0,0,0,0,0,0,-0.1747,-0.1755,-0.181,-0.1814,-0.1789,-0.1831,-0.1839,-0.1848,-0.1892,-0.1899,-0.1875,-0.1877,-0.1937,-0.1943,-0.1949,-0.2039,-0.1976,-0.1978,-0.198,-0.21,-0.2102,-0.2104,0,0,0,0,0,0,-0.1745,-0.1751,-0.1808,-0.1787,-0.1795,-0.1832,-0.1842,-0.1849,-0.189,-0.19,-0.1908,-0.1913,-0.1938,-0.1945,-0.2001,-0.2039,-0.1979,-0.1982,-0.2098,-0.2101,-0.2103,-0.2167,0,0,0,0,0,0,-0.1742,-0.175,-0.1772,-0.1786,-0.1796,-0.1848,-0.1842,-0.185,-0.1892,-0.1897,-0.1935,-0.194,-0.1939,-0.1997,-0.2003,-0.2041,-0.1984,-0.2096,-0.2099,-0.2102,-0.2162,-0.2171,-0.2179,0,0,0,0,0,-0.1739,-0.1764,-0.1772,-0.178,-0.1819,-0.1849,-0.1856,-0.1882,-0.1894,-0.192,-0.1949,-0.194,-0.2023,-0.2001,-0.2007,-0.2047,-0.2094,-0.2098,-0.2102,-0.2159,-0.217,-0.2179,0,0,0,0,0,0,-0.175,-0.1771,-0.178,-0.1813,-0.184,-0.1857,-0.1888,-0.1902,-0.1945,-0.1959,-0.1965,-0.1974,-0.2035,-0.2034,-0.201,-0.2093,-0.2057,-0.2062,-0.2098,-0.2108,-0.2116,-0.2107,-0.1986,0,0,0,0,0,-0.176,-0.1783,-0.1803,-0.1834,-0.185,-0.1875,-0.1897,-0.1915,-0.1945,-0.1965,-0.1992,-0.2022,-0.2052,-0.2076,-0.2099,-0.2147,-0.2125,-0.2177,-0.2185,-0.2192,-0.219,-0.2192,-0.2199,-0.2118,-0.2118,-0.2118,0,0,-0.1773,-0.1788,-0.1803,-0.1838,-0.1862,-0.1895,-0.1891,-0.1935,-0.1972,-0.1966,-0.2038,-0.2055,-0.2071,-0.2125,-0.2152,-0.2134,-0.2205,-0.2197,-0.2203,-0.2197,-0.2197,-0.2204,-0.2211,-0.2121,-0.212,-0.212,0,0,-0.1797,-0.1825,-0.1848,-0.1876,-0.1917,-0.1934,-0.1954,-0.1991,-0.2023,-0.2083,-0.2088,-0.213,-0.2182,-0.2197,-0.221,-0.228,-0.2248,-0.2294,-0.2332,-0.2334,-0.234,-0.2345,-0.2325,-0.2328,-0.2299,-0.2299,-0.2299,0,-0.1814,-0.1842,-0.1863,-0.1895,-0.1924,-0.1955,-0.199,-0.2029,-0.2083,-0.2108,-0.2119,-0.2194,-0.2214,-0.2263,-0.2291,-0.2299,-0.2284,-0.2291,-0.2343,-0.2348,-0.2352,-0.233,-0.2332,-0.2303,-0.2302,-0.2302,-0.2302,0,-0.1841,-0.1882,-0.1903,-0.195,-0.1987,-0.2025,-0.2071,-0.2121,-0.2161,-0.2188,-0.2257,-0.2283,-0.2319,-0.2341,-0.2341,-0.2387,-0.2361,-0.2351,-0.2313,-0.2364,-0.2338,-0.2339,-0.2308,-0.2306,-0.2305,-0.2304,0,0,-0.1818,-0.1904,-0.1913,-0.1946,-0.2018,-0.2045,-0.2121,-0.2177,-0.222,-0.2282,-0.2328,-0.2392,-0.2398,-0.2413,-0.242,-0.2432,-0.2455,-0.2411,-0.2409,-0.2381,-0.2444,-0.2279,-0.2264,-0.2453,-0.2454,-0.2454,-0.2413,0,-0.183,-0.1894,-0.1936,-0.2008,-0.2043,-0.2104,-0.2165,-0.2228,-0.2281,-0.2337,-0.2374,-0.2423,-0.2429,-0.2449,-0.2465,-0.2459,-0.2461,-0.2466,-0.2407,-0.2405,-0.2244,-0.2261,-0.2457,-0.2413,-0.2414,-0.2414,-0.2414,0,-0.1823,-0.187,-0.194,-0.203,-0.2052,-0.2107,-0.2196,-0.2255,-0.2339,-0.2379,-0.2431,-0.2455,-0.2499,-0.2489,-0.25,-0.2502,-0.248,-0.2467,-0.2465,-0.2285,-0.2241,-0.2353,-0.2415,-0.2415,-0.2415,-0.2415,-0.2415,0,-0.1766,-0.1865,-0.1921,-0.1955,-0.2065,-0.2115,-0.2177,-0.2268,-0.2313,-0.2403,-0.2431,-0.2487,-0.2509,-0.2508,-0.2493,-0.2501,-0.2477,-0.2479,-0.2306,-0.2294,-0.2427,-0.2422,-0.2472,-0.2472,-0.2472,-0.2472,-0.2472,0,-0.1733,-0.1781,-0.1907,-0.1936,-0.2003,-0.2094,-0.2166,-0.2235,-0.2323,-0.2357,-0.2444,-0.2457,-0.2516,-0.251,-0.2494,-0.2387,-0.2475,-0.23,-0.2269,-0.2456,-0.2454,-0.2427,-0.2423,-0.247,-0.2471,-0.2471,-0.2471,0,-0.1652,-0.1739,-0.1808,-0.1936,-0.1979,-0.2026,-0.2148,-0.2186,-0.2288,-0.2333,-0.236,-0.2439,-0.2425,-0.2446,-0.2433,-0.2358,-0.2295,-0.2235,-0.2419,-0.2401,-0.2112,-0.2112,-0.2034,-0.2028,-0.2023,-0.2018,-0.2014,0,-0.1612,-0.1643,-0.1785,-0.1822,-0.1885,-0.1974,-0.2023,-0.215,-0.2181,-0.2292,-0.2287,-0.2324,-0.2353,-0.2188,-0.2243,-0.2176,-0.2154,-0.2105,-0.2122,-0.2088,-0.2067,-0.2075,-0.2082,-0.2006,-0.2005,-0.2003,-0.2002,0,-0.1525,-0.1593,-0.1649,-0.1726,-0.1793,-0.1851,-0.1933,-0.1938,-0.2062,-0.2179,-0.2138,-0.2115,-0.2089,-0.2068,-0.202,-0.1984,-0.2132,-0.205,-0.2061,-0.2077,-0.2054,-0.2039,-0.2052,-0.1984,-0.1986,-0.1988,-0.1989,0,-0.1456,-0.1472,-0.1553,-0.1601,-0.168,-0.169,-0.1757,-0.178,-0.1826,-0.1953,-0.1933,-0.1978,-0.206,-0.1965,-0.193,-0.1869,-0.1848,-0.1789,-0.1813,-0.1834,-0.1788,-0.1731,-0.1521,0,0,0,0,0,-0.1377,-0.1376,-0.1415,-0.146,-0.153,-0.1569,-0.1672,-0.1741,-0.1865,-0.1778,-0.1847,-0.1813,-0.1755,-0.1787,-0.168,-0.1846,-0.186,-0.1715,-0.1808,-0.1882,-0.1903,-0.1868,0,0,0,0,0,0,-0.1321,-0.1357,-0.1365,-0.1323,-0.1323,-0.1379,-0.1433,-0.1524,-0.1487,-0.1618,-0.1591,-0.1693,-0.1662,-0.1776,-0.1638,-0.1646,-0.1663,-0.1758,-0.1752,-0.187,-0.1889,-0.1906,-0.1877,0,0,0,0,0]},{"header":{"parameterUnit":"m.s-1","parameterCategory":2,"la1":30.2991,"la2":30.254,"lo1":-89.0895,"lo2":-89.0444,"dy":0.0017,"dx":0.0017,"nx":28,"ny":28,"refTime":"2025-01-28T03:00:00:Z","depth":"4","parameterNumber":3,"parameterNumberName":"V-component_of_CURRENTS"},"data":[0,0,0,0,0,0,0,0,0,0,0,0,0,0,0,0,0,0,0,0,0,0,0,0,0,0,0,0,0,0,0,0,0,0,0,0,0,0,0,0,0,0,0,0,0,0,0,0,0,0,0,0,0,0,0,0,0,0,-0.0178,-0.0177,0,-0.0122,-0.0121,-0.012,-0.0075,-0.0075,-0.0074,-0.0074,0.0018,0.002,0.0022,0,0,0,0,0,0,0,0,0,0,0,0,0,-0.0209,-0.0208,-0.0178,-0.0177,-0.0177,-0.0122,-0.0121,-0.012,-0.0075,-0.0075,-0.0074,-0.0074,0.0017,0.002,0.0022,0,0,0,0,0,0,0,0,0,0,0,0,0,-0.0177,-0.0208,-0.0178,-0.0149,-0.0146,-0.0122,-0.0121,-0.012,-0.0075,-0.0075,-0.0074,-0.0074,0.0016,0.0019,0.0023,0.0033,0,0,0.0033,0.0034,0,0,0,0,0,0,0,0,-0.0179,-0.0175,-0.0154,-0.0151,-0.0147,-0.0106,-0.0098,-0.0067,-0.0075,-0.01,-0.0074,-0.0073,-0.0022,-0.0015,-0.0004,0.0038,0.0042,0.0033,0.0035,0.0036,0.0037,0,0,0,0,0,0,0,-0.0181,-0.0177,-0.0154,-0.0153,-0.0149,-0.0126,-0.0121,-0.0092,-0.0062,-0.0098,-0.0095,-0.0091,-0.0019,-0.0007,-0.0001,0.0043,0.0033,0.0036,0.0038,0.0039,0.0106,0.0106,0,0,0,0,0,0,-0.0194,-0.018,-0.0156,-0.0152,-0.0164,-0.0126,-0.012,-0.0119,-0.0063,-0.0055,-0.0092,-0.009,-0.0013,-0.0005,0.0002,0.0018,0.0036,0.0039,0.0041,0.0106,0.0106,0.0106,0,0,0,0,0,0,-0.0195,-0.0192,-0.0158,-0.0166,-0.016,-0.0126,-0.0124,-0.0118,-0.0106,-0.0059,-0.005,-0.0088,-0.0012,-0.0003,0.0023,0.0022,0.0041,0.0044,0.0107,0.0106,0.0106,0.005,0,0,0,0,0,0,-0.0196,-0.0193,-0.0198,-0.0167,-0.016,-0.015,-0.0125,-0.0117,-0.0105,-0.0102,-0.0053,-0.0043,-0.0011,0.0018,0.0026,0.0027,0.0046,0.0107,0.0107,0.0106,0.0052,0.0047,0.0044,0,0,0,0,0,-0.0197,-0.0207,-0.0198,-0.0196,-0.0168,-0.0151,-0.0145,-0.0118,-0.0106,-0.0105,-0.0072,-0.0045,0.0023,0.002,0.003,0.0031,0.0107,0.0107,0.0106,0.0053,0.0048,0.0044,0,0,0,0,0,0,-0.0223,-0.0202,-0.0192,-0.0196,-0.0178,-0.0144,-0.0143,-0.0123,-0.0097,-0.0094,-0.0048,-0.0037,-0.0015,0.0015,0.0011,0.005,0.007,0.0071,0.0026,0.0022,0.0018,0.0004,0.0049,0,0,0,0,0,-0.0233,-0.0235,-0.0209,-0.0213,-0.0207,-0.0176,-0.0167,-0.0149,-0.0122,-0.011,-0.0076,-0.004,-0.0009,0.001,0.004,0.0061,0.0099,0.0069,0.0065,0.0061,0.0057,0.0113,0.0114,0.0105,0.0105,0.0105,0,0,-0.0245,-0.0234,-0.0236,-0.0219,-0.0204,-0.0203,-0.0169,-0.0161,-0.0157,-0.0104,-0.0091,-0.0055,-0.0008,0.0014,0.0028,0.004,0.0083,0.0061,0.0057,0.0055,0.0113,0.0114,0.0115,0.0105,0.0105,0.0105,0,0,-0.0274,-0.0262,-0.0273,-0.0263,-0.0246,-0.0226,-0.0227,-0.0197,-0.0181,-0.0164,-0.0124,-0.009,-0.0048,-0.0009,0.0015,0.0008,0.0057,0.0017,-0.0009,0.0045,0.0046,0.0048,0.0094,0.01,0.0019,0.0019,0.0019,0,-0.029,-0.0299,-0.0274,-0.0282,-0.028,-0.0242,-0.0253,-0.0231,-0.0196,-0.0182,-0.0169,-0.0096,-0.0057,-0.0017,-0.0021,-0.0,0.0034,0.0003,0.004,0.0042,0.0045,0.0092,0.01,0.0016,0.0016,0.0017,0.0017,0,-0.0323,-0.0332,-0.0339,-0.0337,-0.033,-0.0334,-0.0304,-0.0292,-0.0268,-0.024,-0.0201,-0.0145,-0.0098,-0.008,-0.0054,-0.0016,0.0003,0.0025,0.005,0.0042,0.0093,0.0101,0.0012,0.0013,0.0014,0.0015,0,0,-0.0352,-0.0361,-0.0365,-0.0377,-0.036,-0.0359,-0.0353,-0.033,-0.0323,-0.0279,-0.0258,-0.02,-0.0161,-0.0132,-0.0084,-0.0038,0.0009,-0.0007,-0.0003,0.0035,0.0124,0.0104,0.0113,0.0037,0.0038,0.0039,0.0151,0,-0.0385,-0.0421,-0.041,-0.044,-0.0454,-0.0422,-0.0421,-0.0394,-0.036,-0.033,-0.0258,-0.0223,-0.0182,-0.0159,-0.0105,-0.0021,0.003,-0.0023,0.013,0.0134,0.0114,0.0121,0.0043,0.0158,0.016,0.0161,0.0163,0,-0.0417,-0.0438,-0.0478,-0.0494,-0.0496,-0.0507,-0.0493,-0.0485,-0.0429,-0.0399,-0.0342,-0.0284,-0.0208,-0.0174,-0.0029,-0.0066,0.002,0.0088,0.0095,0.0101,0.013,0.017,0.0179,0.0178,0.0177,0.0176,0.0175,0,-0.0451,-0.0482,-0.0519,-0.0526,-0.0536,-0.0546,-0.0546,-0.0509,-0.0502,-0.044,-0.0421,-0.032,-0.0269,-0.0151,-0.0014,-0.0018,0.0147,0.0166,0.0234,0.0234,0.0244,0.0241,0.0273,0.0272,0.0272,0.0272,0.0272,0,-0.0484,-0.0514,-0.0544,-0.0565,-0.0608,-0.0594,-0.0618,-0.0597,-0.0564,-0.0552,-0.0461,-0.042,-0.0262,-0.0148,-0.0022,0.0127,0.0148,0.0229,0.0262,0.0217,0.021,0.025,0.0246,0.0276,0.0275,0.0274,0.0274,0,-0.0511,-0.0531,-0.058,-0.0613,-0.0629,-0.0659,-0.0681,-0.0689,-0.065,-0.0629,-0.0611,-0.049,-0.0342,-0.0179,0.0021,0.0109,0.026,0.0312,0.0245,0.0272,0.0314,0.0306,0.0397,0.0397,0.0397,0.0397,0.0397,0,-0.0526,-0.0557,-0.0624,-0.0664,-0.0686,-0.0728,-0.0755,-0.0737,-0.0735,-0.0665,-0.0651,-0.0516,-0.0417,-0.0145,0.0018,0.0255,0.0287,0.0357,0.0338,0.0304,0.0328,0.0319,0.0311,0.0398,0.0398,0.0398,0.0398,0,-0.0555,-0.0585,-0.0626,-0.0713,-0.0763,-0.0808,-0.0837,-0.0843,-0.0806,-0.0776,-0.0663,-0.0518,-0.0352,-0.0146,0.0033,0.0204,0.0303,0.036,0.0361,0.0343,0.0307,0.0328,0.0319,0.0398,0.0398,0.0398,0.0398,0,-0.0573,-0.0615,-0.0679,-0.0748,-0.0818,-0.0862,-0.0876,-0.0855,-0.084,-0.075,-0.0714,-0.0523,-0.041,-0.0172,-0.0004,0.0154,0.0194,0.0236,0.0244,0.0246,0.016,0.0089,0.0142,0,0,0,0,0,-0.0586,-0.0635,-0.0708,-0.0784,-0.0854,-0.0887,-0.0916,-0.0913,-0.088,-0.0804,-0.0752,-0.0588,-0.0329,-0.0214,-0.0057,-0.0016,0.0202,0.0169,0.0251,0.0402,0.0401,0.0324,0,0,0,0,0,0,-0.0596,-0.0667,-0.0706,-0.0793,-0.0849,-0.0913,-0.0932,-0.0912,-0.0854,-0.0799,-0.0653,-0.0565,-0.0309,-0.0414,-0.0057,-0.001,0.0058,0.0297,0.03,0.0403,0.0402,0.0401,0.0321,0,0,0,0,0]}]]